[[{"header":{"parameterUnit":"m.s-1","parameterCategory":1,"la1":30.2991,"la2":30.254,"lo1":-89.0895,"lo2":-89.0444,"dy":0.0017,"dx":0.0017,"nx":28,"ny":28,"refTime":"2024-04-10T09:00:00:Z","depth":0,"parameterNumber":2,"parameterNumberName":"U-component_of_WINDS"},"data":[0,0,0,0,0,0,0,0,0,0,0,0,0,0,0,0,0,0,0,0,0,0,0,0,0,0,0,0,0,0,0,0,0,0,0,0,0,0,0,0,0,0,0,0,0,0,0,0,0,0,0,0,0,0,0,0,0,0,5.2206,5.2205,0,5.2071,5.207,5.2068,5.1893,5.189,5.1887,5.1885,5.1742,5.1741,5.174,0,0,0,0,0,0,0,0,0,0,0,0,0,5.2309,5.2308,5.2206,5.2205,5.2203,5.2072,5.207,5.2068,5.1894,5.189,5.1887,5.1883,5.1743,5.1741,5.174,0,0,0,0,0,0,0,0,0,0,0,0,0,5.2229,5.2308,5.2207,5.21,5.2089,5.2072,5.207,5.2067,5.1894,5.189,5.1886,5.1882,5.1743,5.1741,5.174,5.1814,0,0,5.1734,5.1734,0,0,0,0,0,0,0,0,5.2233,5.2225,5.2118,5.2108,5.2095,5.1995,5.2053,5.1982,5.1895,5.1968,5.1885,5.188,5.1829,5.182,5.1804,5.1808,5.1801,5.1734,5.1733,5.1732,5.1732,0,0,0,0,0,0,0,5.2239,5.223,5.2153,5.2116,5.2103,5.2058,5.2042,5.2039,5.1924,5.1962,5.1949,5.1935,5.1822,5.1806,5.18,5.1799,5.1734,5.1733,5.1732,5.1731,5.1854,5.1858,0,0,0,0,0,0,5.2261,5.2236,5.2157,5.2149,5.2155,5.206,5.2041,5.2031,5.1924,5.1903,5.1939,5.1928,5.1811,5.1802,5.1794,5.1872,5.1732,5.1731,5.173,5.185,5.1855,5.186,0,0,0,0,0,0,5.2264,5.2256,5.2162,5.2189,5.2173,5.2062,5.2052,5.2031,5.2014,5.1907,5.1885,5.1944,5.1808,5.1796,5.181,5.1865,5.173,5.1728,5.1845,5.1852,5.1858,5.2031,0,0,0,0,0,0,5.2268,5.2258,5.2286,5.2191,5.2173,5.2183,5.2056,5.2031,5.2012,5.1996,5.1906,5.1886,5.1803,5.1814,5.1809,5.186,5.1727,5.184,5.1848,5.1856,5.202,5.2043,5.2062,0,0,0,0,0,5.2272,5.234,5.2289,5.228,5.2206,5.2187,5.2176,5.2081,5.2018,5.2044,5.1975,5.1889,5.186,5.1817,5.1809,5.1861,5.1836,5.1846,5.1855,5.2011,5.2039,5.2062,0,0,0,0,0,0,5.2444,5.2325,5.2267,5.2306,5.2258,5.2157,5.2188,5.2113,5.2081,5.2067,5.1948,5.1929,5.1957,5.191,5.1864,5.1926,5.1835,5.1844,5.1956,5.1981,5.2002,5.2012,5.1726,0,0,0,0,0,5.2487,5.2482,5.2379,5.2423,5.2402,5.23,5.2288,5.2219,5.2163,5.2141,5.2073,5.2021,5.1999,5.1988,5.1963,5.2013,5.1989,5.2045,5.2066,5.2084,5.2092,5.2113,5.2136,5.1892,5.1892,5.1892,0,0,5.2574,5.2509,5.2513,5.2456,5.241,5.2407,5.2284,5.2286,5.2281,5.2141,5.215,5.2098,5.2032,5.2064,5.2075,5.2026,5.2155,5.2096,5.2111,5.211,5.2125,5.2149,5.2169,5.1898,5.1897,5.1896,0,0,5.2732,5.2683,5.2714,5.2671,5.2604,5.2535,5.2544,5.2454,5.2414,5.2422,5.2316,5.2308,5.2275,5.2232,5.2206,5.2347,5.2266,5.2342,5.2452,5.2473,5.2493,5.2509,5.2557,5.2576,5.2351,5.2352,5.2352,0,5.2848,5.284,5.2739,5.2748,5.2725,5.2599,5.2629,5.2591,5.2519,5.2506,5.2453,5.2407,5.2354,5.2373,5.2408,5.2392,5.2395,5.2351,5.2498,5.2514,5.2528,5.2572,5.2591,5.2361,5.236,5.2359,5.2358,0,5.2987,5.2983,5.3016,5.295,5.2931,5.2951,5.2851,5.2843,5.2776,5.2713,5.2721,5.2653,5.2611,5.261,5.2544,5.262,5.2591,5.2521,5.2426,5.2562,5.2602,5.2618,5.2375,5.2371,5.2368,5.2366,0,0,5.3247,5.3126,5.314,5.3108,5.3025,5.3019,5.3032,5.2992,5.2987,5.2942,5.2948,5.2923,5.2856,5.2827,5.2754,5.2774,5.2888,5.2699,5.2696,5.2735,5.2964,5.3017,5.3039,5.2834,5.2837,5.2839,5.2969,0,5.3387,5.3404,5.3313,5.3353,5.3347,5.3228,5.3238,5.3188,5.3129,5.3114,5.3048,5.3031,5.2946,5.2927,5.2941,5.2871,5.2932,5.2861,5.2836,5.2837,5.2855,5.306,5.3116,5.3242,5.2984,5.2987,5.2989,0,5.3553,5.3518,5.3558,5.3472,5.3466,5.3478,5.3433,5.3421,5.3361,5.3316,5.3284,5.3201,5.3205,5.3117,5.3119,5.3073,5.3057,5.3022,5.3024,5.3017,5.292,5.3056,5.328,5.3298,5.3013,5.3011,5.3009,0,5.3737,5.37,5.3718,5.3695,5.3596,5.3606,5.3565,5.3501,5.3482,5.3443,5.3429,5.3391,5.337,5.3341,5.3249,5.3193,5.3262,5.3166,5.3222,5.3225,5.3241,5.3241,5.3463,5.3235,5.3235,5.3234,5.3234,0,5.3902,5.393,5.3799,5.381,5.3838,5.3733,5.3763,5.371,5.3653,5.365,5.3545,5.3544,5.3424,5.3409,5.3337,5.3349,5.334,5.3303,5.3283,5.3311,5.3316,5.3298,5.3286,5.3239,5.3238,5.3237,5.3236,0,5.4111,5.4025,5.4037,5.3942,5.3919,5.3944,5.3862,5.3867,5.3802,5.38,5.3793,5.3691,5.3668,5.3574,5.3528,5.3479,5.3514,5.3476,5.3535,5.3522,5.3583,5.3578,5.38,5.3823,5.3583,5.3586,5.3588,0,5.4221,5.424,5.4149,5.414,5.4104,5.4092,5.4073,5.397,5.3954,5.3887,5.39,5.3869,5.3838,5.3806,5.3726,5.369,5.3649,5.373,5.3643,5.367,5.3648,5.3647,5.3648,5.3748,5.3751,5.3754,5.3756,0,5.4425,5.4381,5.4359,5.4322,5.4303,5.4269,5.4227,5.4226,5.4111,5.4099,5.4075,5.4052,5.4005,5.3974,5.3925,5.3879,5.3798,5.3784,5.3795,5.3823,5.3856,5.3837,5.3584,5.3779,5.3777,5.3775,5.3774,5.3773,5.4586,5.4597,5.4534,5.4513,5.4472,5.4436,5.4436,5.4372,5.4351,5.4306,5.4246,5.423,5.4167,5.4092,5.4053,5.4037,5.3992,5.4008,5.4011,5.4017,5.403,5.3861,5.4028,5.4027,5.4026,5.4025,5.4025,0,5.4782,5.4737,5.4718,5.4665,5.4648,5.4575,5.4526,5.4516,5.4503,5.4452,5.4425,5.4397,5.4367,5.4285,5.4246,5.4248,5.421,5.4241,5.4239,5.4229,5.4074,5.4067,5.4273,5.4273,5.4273,5.4273,5.4273,5.4273,5.4883,5.4897,5.4847,5.4839,5.4792,5.4777,5.4754,5.472,5.4679,5.4653,5.4628,5.4576,5.4511,5.4467,5.4435,5.4411,5.4401,5.4445,5.4409,5.4264,5.4241,5.4218,5.4211,5.4444,5.4444,5.4565,5.4566,5.4567]},{"header":{"parameterUnit":"m.s-1","parameterCategory":1,"la1":30.2991,"la2":30.254,"lo1":-89.0895,"lo2":-89.0444,"dy":0.0017,"dx":0.0017,"nx":28,"ny":28,"refTime":"2024-04-10T09:00:00:Z","depth":0,"parameterNumber":3,"parameterNumberName":"V-component_of_WINDS"},"data":[0,0,0,0,0,0,0,0,0,0,0,0,0,0,0,0,0,0,0,0,0,0,0,0,0,0,0,0,0,0,0,0,0,0,0,0,0,0,0,0,0,0,0,0,0,0,0,0,0,0,0,0,0,0,0,0,0,0,8.2202,8.2204,0,8.2464,8.2467,8.2469,8.2527,8.2525,8.2523,8.2521,8.2793,8.2802,8.2811,0,0,0,0,0,0,0,0,0,0,0,0,0,8.1753,8.1761,8.2201,8.2205,8.2208,8.2463,8.2467,8.247,8.2527,8.2525,8.2523,8.252,8.279,8.2801,8.2811,0,0,0,0,0,0,0,0,0,0,0,0,0,8.1974,8.1763,8.2201,8.2267,8.2276,8.2462,8.2467,8.2471,8.2528,8.2525,8.2522,8.2519,8.2786,8.28,8.2813,8.2953,0,0,8.2854,8.286,0,0,0,0,0,0,0,0,8.1962,8.1991,8.2254,8.2263,8.2273,8.246,8.2408,8.2633,8.2528,8.2432,8.2521,8.2518,8.2685,8.2706,8.2762,8.2966,8.2978,8.2855,8.2864,8.2869,8.2873,0,0,0,0,0,0,0,8.1946,8.198,8.2305,8.2258,8.2269,8.2284,8.2313,8.2451,8.2571,8.244,8.2445,8.2475,8.2689,8.2749,8.2769,8.2982,8.2855,8.2867,8.2875,8.2881,8.3315,8.3318,0,0,0,0,0,0,8.1919,8.1967,8.2297,8.2313,8.2107,8.2295,8.2327,8.2403,8.257,8.2593,8.2477,8.2477,8.2727,8.2753,8.2778,8.2954,8.2869,8.2882,8.289,8.3311,8.3316,8.3319,0,0,0,0,0,0,8.1909,8.1948,8.2286,8.2141,8.2186,8.2306,8.239,8.2409,8.2469,8.2598,8.262,8.2516,8.2726,8.2759,8.2909,8.2964,8.2888,8.29,8.3307,8.3313,8.3317,8.3306,0,0,0,0,0,0,8.1896,8.1944,8.1998,8.2142,8.2193,8.2412,8.2394,8.2416,8.2491,8.2493,8.264,8.2661,8.2726,8.2889,8.2923,8.2982,8.2911,8.3303,8.331,8.3316,8.3302,8.331,8.3317,0,0,0,0,0,8.188,8.1985,8.2,8.204,8.2263,8.2415,8.2444,8.2516,8.2496,8.2551,8.2634,8.2657,8.2952,8.2904,8.2942,8.3006,8.33,8.3308,8.3315,8.3299,8.3309,8.3317,0,0,0,0,0,0,8.1845,8.2005,8.2024,8.2179,8.2283,8.2424,8.2497,8.2524,8.2636,8.2634,8.2718,8.2751,8.2896,8.2966,8.2909,8.3151,8.3126,8.3141,8.31,8.311,8.3118,8.3098,8.2922,0,0,0,0,0,8.1855,8.1965,8.2099,8.2222,8.2274,8.2376,8.2445,8.2491,8.2602,8.2647,8.2741,8.2849,8.2967,8.3042,8.3157,8.3312,8.3346,8.3375,8.3383,8.3388,8.3401,8.3489,8.3504,8.3345,8.3345,8.3345,0,0,8.1878,8.1979,8.2043,8.2218,8.2304,8.2416,8.2413,8.2531,8.2616,8.2665,8.2812,8.2885,8.3012,8.3164,8.3237,8.3227,8.3453,8.3398,8.3402,8.3412,8.3499,8.3513,8.3527,8.335,8.3349,8.3348,0,0,8.1977,8.2063,8.2176,8.2262,8.2392,8.2459,8.2486,8.2624,8.2674,8.2822,8.2862,8.2964,8.3164,8.3253,8.3324,8.3455,8.3481,8.3491,8.353,8.3615,8.3627,8.3639,8.3686,8.3702,8.3503,8.3503,8.3503,0,8.1989,8.2158,8.2231,8.2348,8.2424,8.2473,8.2588,8.2668,8.2829,8.2881,8.2868,8.312,8.3209,8.3384,8.3415,8.3471,8.3506,8.3475,8.3619,8.3632,8.3644,8.369,8.3708,8.3503,8.3503,8.3503,8.3503,0,8.2167,8.2284,8.2359,8.2512,8.2597,8.2712,8.2803,8.288,8.2919,8.2987,8.3138,8.3246,8.3384,8.3429,8.3468,8.361,8.36,8.3602,8.3579,8.3658,8.3703,8.3721,8.3504,8.3504,8.3504,8.3504,0,0,8.2252,8.2443,8.2469,8.2539,8.2686,8.2778,8.2896,8.303,8.3094,8.3204,8.3305,8.3473,8.3476,8.3557,8.3607,8.3681,8.3779,8.3675,8.3679,8.369,8.3942,8.3939,8.3959,8.3796,8.3799,8.3802,8.3931,0,8.2369,8.2579,8.2648,8.2824,8.2933,8.2981,8.3084,8.3185,8.3252,8.3356,8.3431,8.3549,8.3543,8.3592,8.3668,8.375,8.383,8.3742,8.3892,8.3897,8.3859,8.3982,8.398,8.4097,8.3949,8.3952,8.3955,0,8.2533,8.2644,8.283,8.2963,8.3011,8.3102,8.323,8.3328,8.3444,8.3488,8.3578,8.3621,8.3747,8.3715,8.3891,8.3829,8.3895,8.3945,8.3951,8.3968,8.3931,8.4003,8.4136,8.4153,8.3983,8.3981,8.3979,0,8.2577,8.2773,8.291,8.2968,8.3126,8.3189,8.3258,8.3371,8.3447,8.3559,8.3609,8.3735,8.3804,8.3901,8.3978,8.3948,8.4147,8.4122,8.4188,8.4186,8.4228,8.4225,8.4373,8.4269,8.4269,8.4269,8.4268,0,8.2701,8.2813,8.2931,8.3015,8.3143,8.3221,8.3345,8.3417,8.3517,8.3617,8.3666,8.3759,8.3854,8.396,8.4021,8.4157,8.4188,8.4228,8.4243,8.4224,8.4219,8.4269,8.4263,8.4273,8.4272,8.4271,8.4271,0,8.2771,8.2855,8.3007,8.3144,8.3181,8.3269,8.3386,8.347,8.3539,8.3665,8.3699,8.3807,8.3934,8.402,8.4183,8.4225,8.4372,8.4386,8.4333,8.434,8.4402,8.4395,8.4588,8.4618,8.4493,8.4494,8.4495,0,8.2845,8.2932,8.3078,8.3147,8.3216,8.3328,8.3405,8.3485,8.3564,8.3703,8.377,8.39,8.4008,8.4209,8.4304,8.4429,8.4446,8.4505,8.4465,8.4443,8.4448,8.4441,8.4451,8.4511,8.4512,8.4513,8.4514,0,8.2967,8.3004,8.3113,8.3237,8.3327,8.3429,8.3531,8.3585,8.3684,8.377,8.3899,8.3983,8.4149,8.4277,8.4411,8.4484,8.4516,8.4525,8.4547,8.4529,8.4495,8.4515,8.435,8.4521,8.452,8.4519,8.4519,8.4519,8.3043,8.3122,8.3237,8.3357,8.3441,8.3535,8.3621,8.37,8.3809,8.3949,8.399,8.4125,8.424,8.4422,8.4497,8.4604,8.4599,8.4631,8.4639,8.4646,8.4646,8.4477,8.4629,8.4629,8.4629,8.4629,8.4629,0,8.3167,8.3243,8.3352,8.3493,8.3587,8.3607,8.3721,8.3799,8.3917,8.402,8.4125,8.4274,8.4399,8.4503,8.4632,8.4698,8.4716,8.473,8.4726,8.4742,8.4643,8.4611,8.4713,8.4713,8.4713,8.4713,8.4713,8.4713,8.3243,8.3379,8.343,8.3608,8.3684,8.3815,8.3879,8.3966,8.4049,8.4212,8.4316,8.4382,8.4486,8.4623,8.4739,8.4767,8.4812,8.4823,8.4853,8.4759,8.4749,8.474,8.4711,8.4832,8.4832,8.4944,8.4945,8.4946]}]]